Showing default

COSMOS 2523, 42986

Orbit data source: Space-Track

COSMOS 2523, 42986 is a payload satellite owned by VVKO VKS (CIS) in SSO that was launched on Fri, 23 Jun 2017 UTC via a SOYUZ-2-1V launch vehicle from the Plesetsk Missile And Space Complex (PKMTR). Payload-class satellites include a variety of spacecraft equipped with specific instruments for various scientific and technological missions. These include communications satellites like Starlink; space stations such as the ISS; scientific satellites like the Hubble; Earth observation satellites from companies like Planet Labs, Umbra, and HawkEye 360; GPS; miniature CubeSats for education and research; and military/defense satellites.

Loading next visibility...
Identifier
42986, 2017-037E
Orbit
SSO
Country
Flag of CISCIS
Related business
Manufacturer
TSKHM?
Mission
Operational Defense Technology
Bus & Motor
NAPRAZHENIYE?, Unknown motor
Mass
~47 kg wet, ~47 kg dry
Launch date (UTC)
2017-06-23 (8 years ago)
Launch vehicle
SOYUZ-2-1V
Launch site
Plesetsk Missile And Space Complex (PKMTR)
Object type
Payload
Rocket body
Debris
Shape & HBR
Box, 0.2 m
Radar Cross Section
0.100 m², Medium (>0.1 m² and < 1m²)

Expand to show TLE details & history
Last TLE update: 11 hours ago

TLE from 11 hours ago
0 COSMOS 2523
1 42986U 17037E   25312.85955390  .00003676  00000-0  33198-3 0  9993
2 42986  97.5112 330.4007 0066671 248.5927 110.8172 14.94396582436044
Epoch: 2025-11-08T20:37Z
TLE epoch observation values (Epoch: 2025-11-08T20:37:45.456Z)
Latitude
-0.00009°
Longitude
-27.32181°
Altitude
604.069 km
Speed
7.548 km/s
True Right ascension
22h 01m 36s
True Declination
0° 00' 00"
Sunlit
Object was in daylight at epoch
Visualization orbit readout
Latitude
Unknown
Longitude
Unknown
Altitude
Unknown
Speed
Unknown
Apparent Right ascension
Unknown
Apparent Declination
Unknown
Sunlit
N/A
Visualization observer readout
Local Sidereal Time
03:26:18
Azimuth
Unknown
Elevation
Unknown
Doppler factor
Unknown
Orbital elements
Apogee altitude
627.65 km
Perigee altitude
534.852 km
Semi-major axis
6,959.388 km
Eccentricity
0.00667
Inclination
97.5112°
RAAN
330.4007°
Arg. of periapsis
248.5927°
True anomaly
111.52919°
Mean anomaly
110.8172°
Eccentric anomaly
111.17341°
Mean motion
3.73841 °/min
Orbital period
96.3 mins
BSTAR
0.00033198
Loading maneuver chart data...
Computing Atmospheric mass density...
Loading historical data...
Loading historical data...
Loading historical data...
Loading historical data...
Loading historical data...
Loading historical data...
Loading historical data...

Documentation

Showing up to 5 results
|